Temperature
19 19 19 18 18 18 18 18 18 17 17 17 17 17 17 17 17 17 17 16 16 16 16 16 16 16 16 16 15 15 15 15 15 15 14 14 14 14 14 14 14 14 14
20 19 19 18 18 18 18 17 17 17 17 17 17 17 17 17 17 16 16 16 16 16 16 16 16 16 15 15 15 15 15 15 14 14 14 14 14 14 14 14 14 13 13
19 19 18 18 18 18 17 17 17 17 17 17 17 17 17 16 16 16 16 16 16 16 15 15 15 15 15 15 15 15 15 14 14 14 14 13 13 13 13 13 13 13 13
19 19 19 18 18 18 17 17 17 17 17 17 16 16 16 16 16 16 16 16 16 15 15 15 15 15 15 15 14 14 14 14 14 14 13 13 13 13 13 13 12 12 12
19 19 19 18 18 17 17 17 17 17 17 17 16 16 16 16 16 15 15 15 15 15 15 15 14 14 14 14 14 14 14 14 13 13 13 13 12 12 12 12 12 12 12
19 19 18 18 17 17 17 17 17 16 16 16 16 16 16 16 15 15 15 15 15 15 14 14 14 14 14 14 14 14 13 13 13 13 12 12 12 12 12 12 12 12 11
19 19 18 18 17 17 17 17 16 16 16 16 16 16 16 16 15 15 15 15 15 14 14 14 14 13 13 13 13 13 13 13 13 12 12 12 12 12 12 12 12 12 11
18 18 18 17 17 17 17 16 16 16 16 16 16 15 15 15 15 15 14 14 14 14 14 14 13 13 13 13 13 13 13 12 12 12 12 12 12 12 12 12 11 11 11
18 18 17 17 17 17 16 16 16 16 15 15 15 15 15 15 15 14 14 14 14 13 13 13 13 13 13 13 13 13 12 12 12 12 12 11 11 11 11 11 11 11 11
18 17 17 17 16 16 16 16 16 15 15 15 15 15 15 14 14 14 14 14 13 13 13 13 12 12 12 12 12 12 12 12 12 11 11 11 11 11 11 11 11 10 10
18 17 17 16 16 16 16 16 15 15 15 14 14 14 14 14 14 14 13 13 13 13 13 12 12 12 12 12 12 12 11 11 11 11 11 11 11 11 10 10 10 10 10
17 17 16 16 16 16 15 15 15 15 14 14 14 14 14 14 13 13 13 13 13 12 12 12 12 12 11 11 11 11 11 11 11 11 11 11 10 10 10 10 10 10 10
17 17 16 16 16 15 15 15 14 14 14 14 14 14 14 13 13 13 13 13 12 12 12 12 12 11 11 11 11 11 11 11 10 10 10 10 10 10 10 10 10 10 9
16 16 16 16 16 15 15 15 14 14 14 14 14 13 13 13 13 13 13 12 12 12 12 11 11 11 11 11 11 11 10 10 10 10 10 10 10 10 10 9 9 9 9
16 16 16 15 15 15 15 14 14 14 14 14 14 14 13 13 13 13 12 12 12 12 11 11 11 11 11 11 11 10 10 10 10 10 10 10 9 9 9 9 9 9 9
16 16 15 15 15 15 14 14 14 14 14 13 13 13 13 13 13 12 12 12 11 11 11 11 11 11 11 10 10 10 10 10 9 9 9 9 9 9 9 9 9 9 9
15 15 15 15 15 14 14 14 14 14 13 13 13 13 13 12 12 12 12 11 11 11 11 11 10 10 10 10 10 10 10 9 9 9 9 9 9 9 9 9 8 8 8
15 15 15 15 14 14 14 14 14 14 13 13 13 13 12 12 12 12 12 11 11 11 11 10 10 10 10 10 10 9 9 9 9 9 9 9 9 8 8 8 8 8 8
15 15 14 14 14 14 14 14 14 13 13 13 13 13 12 12 12 12 11 11 11 11 10 10 10 10 10 9 9 9 9 9 9 9 9 8 8 8 8 8 8 8 8
14 14 14 14 14 14 14 14 13 13 13 13 13 13 12 12 12 11 11 11 11 11 10 10 10 10 9 9 9 9 9 9 9 8 8 8 8 8 8 8 8 8 7
14 14 14 14 14 14 13 13 13 13 13 13 12 12 12 12 12 11 11 11 11 10 10 10 10 9 9 9 9 9 9 9 8 8 8 8 8 8 8 8 7 7 7
13 13 13 14 14 13 13 13 13 13 13 12 12 12 12 12 11 11 11 11 11 10 10 10 10 9 9 9 9 9 9 8 8 8 8 8 8 8 7 7 7 7 7
13 13 13 13 13 13 13 13 13 13 12 12 12 12 11 11 11 11 11 10 10 10 10 10 9 9 9 9 9 9 8 8 8 8 8 8 7 7 7 7 7 7 7
13 13 13 13 13 13 13 13 12 12 12 12 12 12 11 11 11 11 11 11 10 10 10 9 9 9 9 9 8 8 8 8 8 8 7 7 7 7 7 6 6 6 6
13 13 13 13 13 13 13 12 12 12 12 12 12 11 11 11 11 11 11 10 10 10 10 9 9 9 9 8 8 8 8 8 8 7 7 7 7 7 6 6 6 6 6
12 12 12 12 12 12 12 12 12 12 12 12 11 11 11 11 11 10 10 10 10 10 10 9 9 9 9 8 8 8 8 7 7 7 7 7 7 6 6 6 6 6 6
Wind_Speed
4 3 3 2 2 2 2 2 2 2 2 2 2 2 2 2 2 2 1 1 2 1 1 2 1 0 1 1 0 1 1 2 2 2 1 0 1 1 2 3 4 4 4
6 5 4 3 3 2 2 2 2 2 2 2 2 2 2 2 2 2 2 1 2 2 1 2 2 1 2 1 1 1 0 1 2 2 1 0 1 2 2 2 3 3 4
5 5 4 3 3 3 3 3 3 2 2 1 2 2 2 2 1 1 2 2 2 2 2 2 2 2 2 2 2 1 1 1 1 2 1 1 1 1 2 2 2 2 3
5 5 4 4 4 3 3 3 3 3 2 2 2 2 2 2 1 1 2 2 2 2 2 2 2 2 2 2 2 2 2 2 2 2 2 1 1 1 2 2 2 1 2
6 5 4 3 3 3 2 2 2 3 3 2 3 2 2 2 1 1 2 2 2 2 2 2 3 4 4 3 2 2 2 2 2 2 2 1 1 1 1 2 2 1 1
6 5 4 4 3 3 2 3 3 3 2 3 2 2 2 1 2 3 3 3 2 2 2 2 3 4 4 4 4 3 3 3 2 2 1 1 1 1 1 2 2 2 1
5 4 4 4 4 3 3 3 2 2 2 3 2 3 2 2 3 3 4 3 3 2 2 2 2 2 3 2 3 4 3 3 3 3 2 2 2 2 2 2 2 2 2
5 5 4 4 4 3 3 3 2 2 3 2 3 3 2 2 3 4 5 4 3 2 2 3 3 2 2 2 2 3 3 2 1 1 2 2 2 2 2 3 3 2 1
5 5 5 5 4 3 3 2 2 2 2 2 3 3 3 1 3 4 5 3 3 2 1 2 2 2 2 3 3 3 3 3 3 2 3 2 3 3 4 3 2 2 1
7 6 5 5 5 4 3 2 2 2 2 3 3 3 3 2 2 4 5 3 3 2 1 1 2 2 2 3 3 2 1 2 2 3 3 3 2 2 3 3 3 3 1
7 6 5 5 5 5 4 3 2 2 3 3 3 2 2 2 1 3 5 3 3 2 1 0 0 1 2 2 2 2 2 1 1 2 2 2 2 2 1 1 2 3 3
6 6 6 5 5 4 4 3 2 3 3 2 3 2 1 0 1 2 4 3 3 3 1 1 1 1 2 2 2 1 2 3 2 2 2 1 1 1 1 1 2 2 3
5 5 5 5 4 4 4 4 3 3 3 3 3 3 2 1 0 1 3 3 4 2 1 1 1 3 3 2 2 3 3 2 2 1 0 1 2 2 1 1 1 1 1
5 5 5 5 4 3 3 4 4 4 3 3 4 4 3 2 2 1 1 1 2 2 1 1 2 3 3 2 2 2 1 1 2 1 1 1 1 1 1 0 0 1 1
5 5 5 5 5 4 2 2 3 4 5 5 5 5 5 4 5 5 4 2 2 2 2 2 2 2 2 2 1 1 1 1 1 1 0 1 1 1 1 1 0 0 0
5 5 5 5 5 4 4 1 2 1 2 5 6 6 4 5 6 6 6 5 5 5 4 2 1 1 1 1 1 0 1 0 0 0 0 0 0 0 1 1 0 0 1
5 5 5 5 5 5 5 5 2 1 1 0 3 5 5 6 6 6 6 5 4 6 3 2 2 2 2 2 1 1 0 1 0 1 0 0 0 0 0 0 0 0 1
4 5 5 5 6 6 6 5 5 4 3 2 2 4 5 6 6 6 6 5 2 2 2 2 3 2 2 2 2 1 0 0 1 0 0 0 0 0 0 0 1 1 2
3 3 4 4 5 5 5 5 5 5 4 3 2 1 4 4 4 4 6 4 4 3 3 2 3 3 2 2 2 1 1 1 0 0 1 1 1 1 1 1 2 2 1
3 5 5 4 4 5 5 5 5 5 5 5 5 4 4 4 3 3 3 3 4 4 3 3 3 3 3 2 2 2 1 1 1 1 1 1 1 1 2 2 2 2 2
3 3 4 4 4 5 5 6 6 6 6 5 5 6 9 6 6 6 5 5 5 5 4 4 3 3 3 3 3 2 2 2 2 2 2 2 2 1 2 2 2 2 2
3 2 3 3 4 4 5 5 5 5 6 6 4 4 8 5 5 5 5 5 5 4 4 4 4 4 4 4 4 3 3 2 2 2 2 2 2 2 2 1 1 2 2
3 2 2 2 3 4 4 4 5 5 5 5 5 5 5 5 5 5 5 5 4 4 4 4 4 3 3 4 5 5 4 4 4 3 3 2 2 2 2 2 2 2 2
3 3 3 3 3 3 4 4 4 5 5 5 6 6 6 5 5 5 5 4 4 4 4 4 5 5 6 5 5 5 5 6 5 5 4 3 2 2 2 2 2 3 3
2 3 3 3 3 4 4 4 4 4 5 5 5 5 5 5 5 5 5 4 5 5 5 5 5 6 7 7 5 5 5 5 5 4 3 3 3 2 2 2 2 2 2
2 2 3 3 3 3 4 4 4 4 4 4 5 5 5 5 4 4 4 4 4 4 4 5 6 7 7 7 7 7 6 4 3 3 3 2 2 2 1 2 2 2 2
Wind_Direction
161 157 141 146 140 141 142 145 140 123 121 123 123 117 114 111 108 100 96 98 97 71 65 74 34 75 50 26 88 116 150 165 204 274 281 257 122 129 126 125 132 129 133
164 154 151 153 146 152 157 163 147 137 137 141 136 123 120 111 110 116 110 88 100 90 78 75 43 59 59 53 71 67 107 183 173 200 259 212 147 152 143 140 131 130 126
158 152 154 163 164 165 171 166 154 145 137 119 122 122 112 103 94 96 107 94 96 100 93 95 81 76 56 43 58 58 45 68 133 161 176 138 108 116 107 105 99 100 120
156 157 159 170 174 164 161 151 149 144 132 117 110 110 105 98 86 71 80 91 91 88 85 89 88 95 91 75 71 65 80 80 86 107 121 109 106 93 111 125 113 90 113
155 157 165 166 157 141 137 134 128 126 127 123 109 95 87 87 78 104 112 107 105 96 79 75 80 85 84 78 87 90 93 93 92 100 106 101 120 127 156 170 157 150 111
157 164 164 153 142 139 145 136 123 115 104 98 101 99 81 68 74 107 117 113 107 106 95 65 67 69 66 62 71 82 103 117 124 122 125 145 198 197 179 168 162 143 216
153 152 155 152 149 156 153 130 136 145 131 120 112 103 96 68 93 113 119 118 112 120 120 102 76 64 61 61 50 47 55 71 115 146 158 195 198 207 173 161 177 175 198
156 158 156 152 156 155 147 148 155 156 151 143 129 126 117 83 98 114 114 103 98 103 111 119 110 75 55 72 78 57 40 23 23 150 178 208 196 185 178 183 182 157 75
168 174 173 165 158 149 152 160 166 149 142 147 146 142 128 94 93 114 116 104 98 89 87 98 110 99 48 85 91 75 43 360 5 66 95 109 115 126 128 102 98 100 67
176 175 170 166 161 159 163 168 172 160 152 146 143 143 138 134 107 116 122 118 110 97 64 63 94 101 71 94 106 104 69 323 359 33 38 42 56 79 122 146 157 148 144
170 164 167 168 165 163 159 168 160 155 137 143 147 144 143 153 135 115 125 134 146 142 145 281 285 85 76 86 119 144 198 183 77 76 57 35 29 25 18 169 173 165 167
159 164 171 172 174 165 159 166 159 152 151 161 153 145 162 185 138 120 127 130 142 146 183 231 240 116 98 97 105 104 115 100 82 68 53 13 338 303 283 261 222 198 196
160 169 173 168 170 162 164 169 163 158 167 177 169 179 200 214 237 112 125 125 121 136 189 191 116 102 89 75 72 87 97 98 97 90 85 274 271 271 294 335 349 9 3
171 178 174 165 163 161 164 171 174 178 184 187 184 191 196 200 214 211 182 139 109 96 82 60 74 70 63 49 41 51 66 114 140 165 210 264 321 356 350 357 14 360 13
179 181 177 171 166 165 160 178 193 205 199 193 197 193 187 204 222 201 178 180 182 177 120 74 59 54 47 32 27 17 22 55 78 55 57 22 357 346 307 301 131 101 177
178 183 182 178 175 169 163 130 10 233 212 198 194 190 205 207 193 184 177 173 164 149 128 128 145 158 170 179 169 324 3 33 96 113 93 131 258 280 295 328 21 124 249
184 189 187 184 182 182 184 180 188 335 22 177 208 199 192 185 178 174 167 154 144 141 137 156 169 177 184 183 182 180 226 273 200 121 137 246 289 306 107 326 315 293 278
180 189 186 187 188 190 193 193 189 190 205 239 247 210 193 181 176 169 147 120 108 125 154 169 177 177 176 176 172 162 145 42 60 96 150 251 227 218 262 259 240 242 263
182 185 188 188 194 200 199 196 197 200 199 195 185 194 184 173 166 163 147 149 167 177 181 180 181 178 181 177 170 164 164 191 230 225 256 269 260 233 248 258 257 260 259
193 193 191 196 197 200 201 199 198 196 193 188 189 188 164 147 160 176 181 183 180 185 185 184 186 178 176 173 171 170 173 202 222 237 252 257 252 233 238 248 245 251 263
192 204 201 201 204 205 207 205 198 190 190 195 199 188 171 172 184 188 192 194 192 193 191 186 186 183 181 178 178 179 183 208 220 230 239 244 238 243 252 250 252 245 255
183 200 204 209 212 210 207 198 187 185 187 188 185 179 178 173 179 185 192 199 199 198 191 183 188 190 187 189 185 181 187 209 233 237 240 242 242 248 252 248 257 257 254
190 202 208 209 203 205 202 195 185 182 183 182 176 172 174 184 190 193 198 200 195 192 192 184 183 192 193 184 183 182 188 209 223 219 220 230 236 246 252 253 251 258 266
205 206 204 203 194 193 191 191 187 186 182 176 174 177 181 185 190 197 197 191 185 191 193 185 187 187 185 184 190 195 201 211 216 217 213 215 221 239 248 259 260 258 254
208 205 200 206 203 193 189 188 184 184 183 179 181 185 188 187 191 198 198 192 184 187 190 185 180 181 183 184 182 189 198 204 208 205 194 196 206 218 234 247 258 268 262
203 206 205 203 199 191 187 185 183 187 188 188 188 188 188 190 193 196 197 195 194 195 198 196 191 188 186 184 183 181 179 179 176 176 165 177 201 224 236 248 262 261 270
Height
1530 1531 1531 1530 1530 1529 1530 1530 1530 1529 1529 1529 1528 1528 1527 1527 1527 1527 1526 1525 1525 1524 1524 1524 1523 1523 1522 1522 1522 1521 1521 1521 1520 1520 1521 1521 1521 1521 1521 1521 1521 1521 1521
1529 1529 1529 1530 1529 1528 1528 1528 1528 1528 1528 1527 1527 1527 1526 1526 1526 1525 1525 1524 1524 1523 1522 1522 1521 1521 1520 1520 1520 1519 1519 1519 1519 1518 1518 1519 1519 1519 1519 1519 1519 1520 1520
1528 1528 1528 1528 1528 1528 1528 1527 1527 1527 1527 1526 1526 1525 1525 1525 1525 1524 1524 1523 1522 1522 1521 1521 1520 1519 1518 1518 1518 1517 1517 1517 1517 1516 1516 1516 1517 1517 1517 1517 1518 1518 1518
1526 1527 1527 1527 1527 1527 1527 1527 1526 1526 1526 1525 1525 1524 1524 1524 1523 1523 1523 1522 1521 1520 1520 1519 1519 1518 1517 1517 1516 1515 1515 1515 1515 1514 1514 1515 1515 1516 1516 1516 1516 1516 1516
1525 1525 1525 1526 1526 1526 1526 1526 1525 1525 1524 1524 1524 1523 1523 1522 1522 1522 1521 1520 1519 1519 1518 1518 1517 1517 1516 1516 1515 1514 1513 1513 1513 1513 1513 1513 1514 1514 1514 1515 1515 1515 1515
1523 1524 1524 1524 1525 1524 1524 1524 1523 1523 1523 1523 1522 1522 1521 1521 1521 1520 1520 1519 1518 1518 1517 1516 1516 1516 1515 1515 1514 1513 1513 1512 1512 1512 1512 1513 1513 1513 1514 1514 1514 1514 1514
1521 1522 1522 1523 1523 1523 1523 1523 1522 1521 1521 1521 1521 1520 1520 1519 1519 1519 1519 1518 1517 1517 1516 1515 1515 1515 1515 1514 1514 1513 1513 1512 1512 1512 1512 1512 1512 1512 1513 1512 1512 1512 1512
1519 1520 1520 1520 1520 1521 1521 1521 1520 1520 1520 1519 1519 1519 1518 1518 1518 1518 1517 1517 1516 1516 1515 1514 1514 1514 1514 1514 1513 1512 1512 1512 1512 1512 1512 1511 1512 1512 1512 1512 1512 1512 1512
1516 1517 1518 1518 1518 1518 1519 1519 1519 1519 1518 1517 1517 1516 1516 1516 1516 1516 1516 1515 1515 1515 1514 1514 1513 1513 1513 1513 1513 1512 1512 1512 1512 1512 1512 1511 1511 1511 1511 1511 1511 1511 1510
1514 1515 1516 1516 1516 1516 1516 1517 1517 1517 1516 1516 1515 1515 1514 1514 1514 1514 1514 1514 1514 1514 1514 1513 1513 1513 1513 1513 1512 1512 1511 1511 1511 1511 1511 1511 1510 1510 1510 1510 1510 1509 1509
1512 1513 1513 1514 1514 1514 1514 1514 1514 1514 1514 1514 1514 1513 1513 1513 1513 1513 1513 1513 1513 1513 1513 1513 1513 1513 1513 1512 1512 1512 1512 1511 1511 1511 1510 1510 1510 1509 1509 1509 1509 1508 1508
1509 1510 1510 1511 1511 1511 1511 1512 1512 1512 1512 1512 1512 1512 1511 1511 1512 1511 1512 1512 1512 1512 1512 1512 1512 1512 1512 1512 1511 1511 1511 1511 1511 1510 1510 1509 1509 1508 1508 1508 1508 1508 1507
1507 1507 1507 1508 1508 1509 1509 1510 1510 1510 1510 1510 1510 1510 1510 1510 1510 1510 1510 1511 1511 1511 1511 1512 1512 1512 1511 1511 1510 1510 1510 1510 1509 1509 1509 1508 1508 1508 1507 1507 1507 1506 1506
1504 1504 1504 1505 1505 1506 1507 1507 1508 1507 1508 1508 1508 1508 1508 1507 1508 1508 1508 1509 1509 1510 1510 1510 1511 1511 1510 1510 1509 1509 1508 1508 1508 1507 1507 1507 1507 1506 1506 1505 1505 1505 1504
1501 1501 1501 1502 1502 1503 1504 1505 1505 1505 1505 1506 1506 1506 1505 1505 1505 1506 1507 1507 1508 1508 1509 1509 1509 1509 1508 1508 1508 1507 1507 1507 1506 1506 1506 1505 1505 1504 1504 1504 1503 1503 1502
1497 1498 1498 1499 1500 1500 1501 1501 1502 1502 1503 1503 1503 1503 1503 1504 1504 1504 1505 1505 1505 1506 1506 1506 1507 1507 1507 1506 1506 1506 1505 1505 1505 1505 1504 1504 1503 1502 1502 1502 1501 1501 1500
1494 1494 1495 1496 1497 1497 1498 1498 1498 1499 1500 1500 1500 1501 1501 1501 1502 1502 1502 1503 1503 1504 1504 1504 1505 1504 1505 1505 1504 1504 1504 1504 1503 1503 1502 1502 1501 1501 1500 1500 1499 1499 1498
1491 1491 1492 1493 1494 1494 1495 1495 1495 1496 1496 1496 1497 1498 1498 1499 1500 1500 1500 1501 1500 1501 1501 1502 1502 1502 1503 1503 1502 1502 1502 1502 1501 1501 1500 1500 1499 1499 1498 1498 1497 1496 1496
1487 1488 1489 1490 1490 1491 1492 1492 1492 1493 1493 1493 1494 1494 1495 1496 1497 1498 1498 1498 1498 1499 1500 1500 1500 1500 1501 1501 1501 1500 1500 1500 1499 1499 1498 1498 1497 1497 1496 1495 1495 1494 1493
1484 1485 1486 1487 1487 1488 1488 1488 1488 1489 1489 1490 1490 1491 1492 1493 1494 1494 1495 1496 1496 1497 1497 1498 1499 1499 1499 1499 1499 1498 1498 1498 1497 1496 1496 1495 1495 1494 1494 1493 1492 1492 1491
1481 1482 1482 1483 1484 1484 1484 1485 1485 1485 1486 1486 1487 1488 1489 1490 1490 1491 1492 1493 1494 1494 1495 1496 1496 1496 1496 1496 1496 1496 1496 1495 1495 1494 1493 1492 1492 1491 1491 1490 1490 1489 1488
1479 1479 1479 1480 1480 1481 1481 1481 1481 1482 1482 1483 1483 1485 1486 1487 1488 1489 1489 1490 1491 1492 1493 1493 1493 1493 1493 1493 1493 1493 1493 1492 1492 1491 1490 1490 1489 1488 1488 1487 1487 1486 1485
1476 1476 1476 1477 1477 1478 1478 1478 1478 1479 1479 1479 1481 1482 1483 1484 1485 1486 1487 1488 1488 1489 1490 1490 1490 1490 1490 1490 1490 1490 1489 1489 1488 1488 1487 1486 1486 1485 1484 1484 1483 1482 1482
1473 1473 1474 1474 1475 1475 1475 1475 1476 1477 1477 1477 1478 1479 1480 1481 1483 1484 1484 1485 1486 1486 1487 1487 1487 1487 1487 1487 1487 1486 1486 1485 1485 1484 1484 1483 1482 1481 1481 1480 1480 1479 1479
1470 1471 1471 1471 1472 1472 1472 1473 1473 1474 1474 1475 1476 1477 1478 1479 1480 1481 1482 1483 1483 1484 1484 1484 1484 1484 1484 1483 1483 1483 1483 1482 1481 1481 1480 1479 1478 1478 1477 1477 1476 1476 1475
1467 1468 1468 1469 1469 1469 1469 1470 1470 1471 1472 1472 1473 1474 1475 1476 1477 1478 1479 1480 1480 1480 1481 1481 1481 1481 1480 1480 1480 1479 1479 1478 1477 1477 1476 1475 1475 1474 1473 1473 1472 1472 1471